AirNav   ProFlight Series 2 Aviation Headset
 
 873 users online  

0MU6 Bradbury-Rolf Memorial Heliport
Higginsville, Missouri, USA

GOING TO HIGGINSVILLE?


FAA INFORMATION EFFECTIVE 16 JULY 2020

Location

FAA Identifier: 0MU6
Lat/Long: 39-04-25.4400N 093-44-09.2200W
39-04.424000N 093-44.153667W
39.0737333,-93.7358944
(estimated)
Elevation: 815 ft. / 248 m (estimated)
Variation: 04E (1995)
Time zone: UTC -5 (UTC -6 during Standard Time)
Zip code: 64037

Heliport Operations

Heliport use: Private use, MEDICAL
Activation date: 09/1996
Control tower: no
ARTCC: KANSAS CITY CENTER
FSS: COLUMBIA FLIGHT SERVICE STATION
Attendance: UNATNDD
Wind indicator: yes
Segmented circle: no
Lights: FOR FLOOD LGTS CALL 660-584-3832.

Heliport Communications

WX AWOS-3 at RCM (18 nm S): 119.575 (660-422-7010)

Nearby radio navigation aids

VOR radial/distance  VOR name  Freq  Var
ANXr087/18.3NAPOLEON VORTAC114.0007E
BQSr166/34.0BRAYMER VOR/DME111.2003E

Heliport Services

Runway Information

Helipad H1

Dimensions: 60 x 60 ft. / 18 x 18 m
Surface: concrete
Runway edge lights: FLD
Runway edge markings: MARKED WITH LETTER H.
Latitude: 39-04.424000N
Longitude: 093-44.153667W
Elevation: 815.0 ft.
Traffic pattern: leftleft

Heliport Ownership and Management from official FAA records

Ownership: Privately-owned
Owner: FAMILY PRACTICE ASSOC
1200 W 22ND
HIGGINSVILLE, MO 64037
Phone (660) 584-7751
Manager: ROD KIRCHHOFF
850 WILLOW CREEK LN
HIGGINSVILLE, MO 64037
Phone (816) 565-3685

Additional Remarks

A52-H1 30-40 FT PLINES MKD E & S OF HELIPAD.
FOR CD CTC WHITEMAN APCH AT 660-687-3132. WHEN WHITEMAN APCH IS CLSD, CTC KANSAS CITY ARTCC AT 913-254-8508.

Instrument Procedures

There are no published instrument procedures at 0MU6.

Some nearby airports with instrument procedures:

KHIG - Higginsville Industrial Municipal Airport (3 nm E)
KRCM - Skyhaven Airport (18 nm S)
KSZL - Whiteman Air Force Base (22 nm SE)
3GV - East Kansas City Airport (23 nm W)
KMHL - Marshall Memorial Municipal Airport (25 nm E)
 
Loc | Ops | Rwys | IFR | FBO | Links
Com | Nav | Svcs | Stats | Notes
Area around 0MU6 (Bradbury-Rolf Memorial Heliport)
 
Road maps at: MapQuest Bing Google
 
Aerial photo
No photo
 
Sectional chart

 
Airport distance calculator
Flying to Bradbury-Rolf Memorial Heliport? Find the distance to fly.

From to 0MU6

Sunrise and sunset
Times for 07-Aug-2020
 Local
(UTC-5)
 Zulu
(UTC)
Morning civil twilight05:5410:54
Sunrise06:2311:23
Sunset20:1801:18
Evening civil twilight20:4701:47

Current date and time
Zulu (UTC)  08-Aug-2020 03:22:11
Local (UTC-5)  07-Aug-2020 22:22:11
 
METAR
KRCM 
18nm S 
080255Z AUTO RMK AO2 TSNO PWINO
KSZL 
23nm SE 
080256Z 00000KT 10SM SCT080 SCT150 25/16 A2999 RMK SLP151
KMHL 
25nm E 
080255Z AUTO 13004KT 10SM CLR 23/21 A3004 RMK AO2 LTG DSNT NW
KLXT 
30nm W 
080253Z AUTO 13007KT 10SM VCTS OVC110 26/22 A3001 RMK AO2 LTG DSNT N AND NE RAB10E30 TSB10E46 SLP154 P0004 60004 T02610222 51011
KGPH 
31nm NW 
080255Z AUTO 05005KT 10SM TS BKN026 OVC038 25/22 A3005 RMK AO2 LTG DSNT ALQS
KDMO 
34nm SE 
080253Z AUTO 15006KT 10SM CLR 24/21 A3004 RMK AO2 SLP165 T02440211 53002
TAF
KSZL 
23nm SE 
072110Z 0721/0901 17009KT 9999 SCT040 SCT080 QNH2996INS TEMPO 0813/0815 6000 -SHRA BKN070 TX29/0721Z TN23/0811Z
NOTAMs
Click for the latest NOTAMs
NOTAMs are issued by the DoD/FAA and will open in a separate window not controlled by AirNav.

 

 
 

Would you like to see your business listed on this page?

 If your business provides an interesting product or service to pilots, flight crews, aircraft, or users of the Bradbury-Rolf Memorial Heliport, you should consider listing it here.  To start the listing process, click on the button below
 
Add a business
 

Other Pages about Bradbury-Rolf Memorial Heliport

Update a link
 
Copyright © AirNav, LLC. All rights reserved. Privacy Policy  Contact